GW4717 Weather Reports


Display with metric or nautical units.
time (UTC)temp
F
wind
direction
speed
MPH
gust
MPH
rain 1hr
in
rain 24hr
in
rain mn
in
humidity
%
barometer
mb
20260508023304 45 306 1.0 2.0 0.00 0.00 0.00 66 1015.1
20260508022800 46 299 0.0 2.0 0.00 0.00 0.00 64 1015.2
20260508022257 46 309 0.0 0.0 0.00 0.00 0.00 64 1015.1
20260508021754 46 309 0.0 1.0 0.00 0.00 0.00 62 1014.9
20260508021249 46 308 0.0 2.0 0.00 0.00 0.00 65 1015.0
20260508020746 47 303 1.0 1.0 0.00 0.00 0.00 64 1014.9
20260508020244 47 303 0.0 1.0 0.00 0.00 0.00 62 1014.8
20260508015741 48 250 0.0 0.0 0.00 0.00 0.00 62 1014.9
20260508015238 48 178 0.0 2.0 0.00 0.00 0.00 60 1014.7
20260508014735 47 304 0.0 2.0 0.00 0.00 0.00 59 1014.8
20260508014232 47 299 1.0 2.0 0.00 0.00 0.00 63 1014.8
20260508013727 48 299 1.0 2.0 0.00 0.00 0.00 61 1014.8
20260508013224 48 179 0.0 1.0 0.00 0.00 0.00 56 1014.7
20260508012722 48 293 1.0 1.0 0.00 0.00 0.00 59 1014.5
20260508012218 49 283 0.0 0.0 0.00 0.00 0.00 56 1014.5
20260508011717 49 308 1.0 1.0 0.00 0.00 0.00 56 1014.2
20260508011214 51 298 1.0 2.0 0.00 0.00 0.00 53 1014.1
20260508010710 50 239 0.0 1.0 0.00 0.00 0.00 55 1014.1
20260508010208 50 324 1.0 1.0 0.00 0.00 0.00 55 1014.0
20260508005706 50 292 1.0 1.0 0.00 0.00 0.00 56 1013.9
20260508005202 51 290 0.0 0.0 0.00 0.00 0.00 53 1013.8
20260508004657 52 75 0.0 2.0 0.00 0.00 0.00 52 1013.9
20260508004154 52 275 1.0 2.0 0.00 0.00 0.00 50 1013.8
20260508003651 52 319 2.0 4.0 0.00 0.00 0.00 50 1013.7
20260508003148 52 317 0.0 2.0 0.00 0.00 0.00 50 1013.7
20260508002644 52 220 0.0 0.0 0.00 0.00 0.00 53 1013.7
20260508002143 53 312 2.0 3.0 0.00 0.00 0.00 49 1013.7
20260508001637 53 311 6.0 9.0 0.00 0.00 0.00 47 1013.6
20260508001133 53 238 1.0 3.0 0.00 0.00 0.00 53 1013.4
20260508000629 53 282 0.0 0.0 0.00 0.00 0.00 51 1013.5
20260508000127 53 273 1.0 3.0 0.00 0.00 0.00 50 1013.4
20260507235624 53 168 0.0 1.0 0.00 0.00 0.00 51 1013.3
20260507235121 53 311 2.0 2.0 0.00 0.00 0.00 50 1013.4
20260507234618 53 139 0.0 2.0 0.00 0.00 0.00 51 1013.1
20260507234114 54 129 0.0 2.0 0.00 0.00 0.00 50 1013.1
20260507233611 54 171 0.0 0.0 0.00 0.00 0.00 48 1013.0
20260507233110 55 268 0.0 1.0 0.00 0.00 0.00 48 1012.7
20260507232605 55 326 1.0 6.0 0.00 0.00 0.00 47 1013.0
20260507232103 55 265 0.0 3.0 0.00 0.00 0.00 48 1012.8
20260507231559 55 285 1.0 2.0 0.00 0.00 0.00 46 1012.8
20260507231057 55 154 0.0 7.0 0.00 0.00 0.00 46 1012.7
20260507230553 56 261 0.0 3.0 0.00 0.00 0.00 47 1012.5
20260507230050 56 305 2.0 6.0 0.00 0.00 0.00 46 1012.4
20260507225544 56 294 1.0 7.0 0.00 0.00 0.00 45 1012.3
20260507225041 57 313 1.0 3.0 0.00 0.00 0.00 44 1012.5
20260507224537 57 205 4.0 7.0 0.00 0.00 0.00 45 1012.3
20260507224034 59 317 2.0 8.0 0.00 0.00 0.00 44 1012.3
20260507223530 58 297 1.0 6.0 0.00 0.00 0.00 44 1012.2
20260507223027 58 311 1.0 2.0 0.00 0.00 0.00 45 1012.1
20260507222524 60 308 2.0 13.0 0.00 0.00 0.00 43 1012.2
20260507222020 59 307 2.0 6.0 0.00 0.00 0.00 43 1012.1
20260507221517 59 298 1.0 1.0 0.00 0.00 0.00 44 1011.9
20260507221014 59 160 2.0 3.0 0.00 0.00 0.00 44 1011.9
20260507220511 59 113 0.0 8.0 0.00 0.00 0.00 47 1011.7
20260507220008 59 286 0.0 3.0 0.00 0.00 0.00 49 1011.7
20260507215504 58 141 1.0 2.0 0.00 0.00 0.00 47 1011.8
20260507215002 60 298 2.0 4.0 0.00 0.00 0.00 45 1011.5
20260507214459 59 134 2.0 3.0 0.00 0.00 0.00 48 1011.0
20260507213955 58 139 0.0 3.0 0.00 0.00 0.00 48 1011.3
20260507213452 58 211 0.0 3.0 0.00 0.00 0.00 47 1011.1
20260507212948 59 139 1.0 7.0 0.00 0.00 0.00 49 1011.5
20260507212444 59 314 1.0 7.0 0.00 0.00 0.00 47 1011.5
20260507211941 60 314 4.0 6.0 0.00 0.00 0.00 45 1011.6
20260507211438 60 302 0.0 7.0 0.00 0.00 0.00 48 1011.3
20260507210935 63 318 3.0 4.0 0.00 0.00 0.00 43 1011.2
20260507210432 63 165 1.0 3.0 0.00 0.00 0.00 47 1011.1
20260507205929 63 156 2.0 4.0 0.00 0.00 0.00 42 1011.0
20260507205426 62 234 0.0 4.0 0.00 0.00 0.00 43 1011.1
20260507204922 63 257 4.0 7.0 0.00 0.00 0.00 43 1011.1
20260507204418 64 144 2.0 3.0 0.00 0.00 0.00 44 1011.2
20260507203916 64 144 1.0 4.0 0.00 0.00 0.00 44 1011.1
20260507203414 64 205 2.0 8.0 0.00 0.00 0.00 42 1011.0
20260507202910 64 198 1.0 7.0 0.00 0.00 0.00 44 1010.8
20260507202406 66 141 6.0 7.0 0.00 0.00 0.00 41 1010.9
20260507201902 66 154 1.0 2.0 0.00 0.00 0.00 41 1011.0
20260507201357 66 157 2.0 6.0 0.00 0.00 0.00 40 1010.9
20260507200854 67 179 0.0 3.0 0.00 0.00 0.00 42 1011.0
20260507200350 66 122 4.0 6.0 0.00 0.00 0.00 46 1011.0
20260507195846 68 331 2.0 2.0 0.00 0.00 0.00 39 1010.7
20260507195344 66 234 3.0 3.0 0.00 0.00 0.00 40 1010.9
20260507194841 68 125 2.0 4.0 0.00 0.00 0.00 44 1011.1
20260507194337 69 207 1.0 2.0 0.00 0.00 0.00 38 1010.9
20260507193834 68 152 4.0 6.0 0.00 0.00 0.00 42 1011.1
20260507193326 68 235 1.0 2.0 0.00 0.00 0.00 42 1011.1
20260507192821 68 225 0.0 4.0 0.00 0.00 0.00 47 1011.1
20260507192318 70 289 1.0 2.0 0.00 0.00 0.00 46 1011.1
20260507191814 68 49 0.0 2.0 0.00 0.00 0.00 50 1011.3
20260507191310 65 276 2.0 7.0 0.00 0.00 0.00 48 1011.5
20260507190807 66 305 2.0 7.0 0.00 0.00 0.00 43 1011.2
20260507190306 66 196 1.0 3.0 0.00 0.00 0.00 44 1011.2
20260507185804 65 248 1.0 9.0 0.00 0.00 0.00 43 1011.5
20260507185300 64 76 2.0 8.0 0.00 0.00 0.00 50 1011.3
20260507184758 64 267 1.0 6.0 0.00 0.00 0.00 47 1011.5
20260507184256 66 299 0.0 2.0 0.00 0.00 0.00 45 1011.6
20260507183752 64 311 5.0 8.0 0.00 0.00 0.00 47 1011.6
20260507183249 65 311 1.0 3.0 0.00 0.00 0.00 48 1011.6
20260507182747 63 296 2.0 9.0 0.00 0.00 0.00 48 1011.6
20260507182242 60 135 0.0 3.0 0.00 0.00 0.00 59 1012.0
20260507181739 61 106 0.0 2.0 0.00 0.00 0.00 56 1011.8
20260507181235 61 260 4.0 7.0 0.00 0.00 0.00 52 1011.7
20260507180732 61 301 4.0 8.0 0.00 0.00 0.00 50 1011.9
20260507180229 61 268 0.0 2.0 0.00 0.00 0.00 58 1012.0
20260507175724 61 232 1.0 6.0 0.00 0.00 0.00 59 1012.0
20260507175221 61 273 0.0 0.0 0.00 0.00 0.00 65 1012.0
20260507174719 61 123 1.0 2.0 0.00 0.00 0.00 57 1012.3
20260507174217 61 137 2.0 2.0 0.00 0.00 0.00 55 1012.0
20260507173715 60 205 0.0 6.0 0.00 0.00 0.00 57 1012.2
20260507173211 60 312 6.0 8.0 0.00 0.00 0.00 55 1012.2
20260507172708 59 299 1.0 2.0 0.00 0.00 0.00 60 1012.3
20260507172204 60 315 2.0 2.0 0.00 0.00 0.00 57 1012.4
20260507171704 59 316 0.0 2.0 0.00 0.00 0.00 64 1012.6
20260507171202 60 130 0.0 1.0 0.00 0.00 0.00 58 1012.7
20260507170659 59 315 0.0 1.0 0.00 0.00 0.00 62 1012.6
20260507170156 60 298 1.0 4.0 0.00 0.00 0.00 56 1012.7
20260507165651 61 308 0.0 1.0 0.00 0.00 0.00 61 1012.6
20260507165148 58 121 2.0 4.0 0.00 0.00 0.00 66 1012.6
20260507164644 58 307 3.0 4.0 0.00 0.00 0.00 63 1012.8
20260507164141 59 300 2.0 2.0 0.00 0.00 0.00 59 1013.0
20260507163638 59 213 0.0 0.0 0.00 0.00 0.00 63 1013.0
20260507163136 58 278 0.0 2.0 0.00 0.00 0.00 58 1013.2
20260507162632 60 278 2.0 4.0 0.00 0.00 0.00 57 1013.4
20260507162128 60 321 2.0 4.0 0.00 0.00 0.00 59 1013.2
20260507161624 63 288 1.0 3.0 0.00 0.00 0.00 60 1013.3
20260507161121 65 256 0.0 1.0 0.00 0.00 0.00 53 1013.3
20260507160617 64 274 0.0 1.0 0.00 0.00 0.00 58 1013.4
20260507160114 62 289 1.0 2.0 0.00 0.00 0.00 64 1013.5
20260507155609 62 189 0.0 2.0 0.00 0.00 0.00 55 1013.6
20260507155107 61 312 3.0 3.0 0.00 0.00 0.00 56 1013.5
20260507154603 61 171 0.0 3.0 0.00 0.00 0.00 54 1013.4
20260507154100 62 144 2.0 2.0 0.00 0.00 0.00 54 1013.8
20260507153557 58 288 0.0 3.0 0.00 0.00 0.00 59 1013.8
20260507153054 57 130 1.0 2.0 0.00 0.00 0.00 61 1013.9
20260507152550 57 132 2.0 2.0 0.00 0.00 0.00 61 1013.9
20260507152046 57 304 5.0 6.0 0.00 0.00 0.00 58 1013.9
20260507151542 56 312 0.0 2.0 0.00 0.00 0.00 61 1013.9
20260507151039 57 131 1.0 4.0 0.00 0.00 0.00 58 1013.7
20260507150536 58 151 2.0 2.0 0.00 0.00 0.00 59 1013.8
20260507150033 56 304 0.0 2.0 0.00 0.00 0.00 63 1013.9
20260507145528 57 290 1.0 3.0 0.00 0.00 0.00 59 1014.0
20260507145026 54 148 1.0 2.0 0.00 0.00 0.00 61 1013.9
20260507144522 54 153 2.0 3.0 0.00 0.00 0.00 63 1014.5
20260507144020 55 320 1.0 2.0 0.00 0.00 0.00 64 1014.3
20260507143517 54 195 0.0 0.0 0.00 0.00 0.00 69 1014.5
20260507143014 54 318 0.0 2.0 0.00 0.00 0.00 66 1014.5
20260507142509 54 352 0.0 1.0 0.00 0.00 0.00 70 1014.6
20260507142007 52 321 2.0 3.0 0.00 0.00 0.00 72 1014.6
20260507141502 51 248 0.0 0.0 0.00 0.00 0.00 72 1014.8
20260507140959 51 185 0.0 1.0 0.00 0.00 0.00 74 1014.9
20260507140456 50 217 0.0 1.0 0.00 0.00 0.00 76 1015.1
20260507135953 50 170 1.0 1.0 0.00 0.00 0.00 75 1015.0
20260507135450 49 316 2.0 6.0 0.00 0.00 0.00 78 1015.1
20260507134947 49 293 1.0 3.0 0.00 0.00 0.00 79 1014.9
20260507134444 49 166 1.0 1.0 0.00 0.00 0.00 79 1015.2
20260507133940 49 228 0.0 0.0 0.00 0.00 0.00 82 1015.1
20260507133436 49 281 0.0 2.0 0.00 0.00 0.00 81 1015.0
20260507132935 49 160 0.0 0.0 0.00 0.00 0.00 83 1015.1
20260507132431 49 136 2.0 2.0 0.00 0.00 0.00 83 1015.2
20260507131927 49 253 0.0 0.0 0.00 0.00 0.00 84 1015.3
20260507131424 49 141 1.0 1.0 0.00 0.00 0.00 85 1015.3
20260507130921 50 232 0.0 0.0 0.00 0.00 0.00 87 1015.2
20260507130418 49 227 0.0 0.0 0.00 0.00 0.00 88 1015.4
20260507125917 49 264 0.0 0.0 0.00 0.00 0.00 87 1015.4
20260507125414 49 268 0.0 0.0 0.00 0.00 0.00 88 1015.3
20260507124912 49 255 0.0 0.0 0.00 0.00 0.00 87 1015.3
20260507124408 49 304 0.0 0.0 0.00 0.00 0.00 87 1015.2
20260507123906 49 304 0.0 0.0 0.00 0.00 0.00 88 1015.2
20260507123403 49 304 0.0 3.0 0.00 0.00 0.00 86 1015.4
20260507122900 50 279 0.0 0.0 0.00 0.00 0.00 87 1015.3
20260507122355 50 242 0.0 0.0 0.00 0.00 0.00 87 1015.1
20260507121851 50 239 0.0 0.0 0.00 0.00 0.00 87 1015.0
20260507121347 50 238 0.0 1.0 0.00 0.00 0.00 87 1014.9
20260507120844 50 274 0.0 0.0 0.00 0.00 0.00 87 1014.8
20260507120340 51 273 0.0 0.0 0.00 0.00 0.00 87 1014.8
20260507115836 51 272 0.0 0.0 0.00 0.00 0.00 87 1014.8
20260507115332 51 272 0.0 0.0 0.00 0.00 0.00 86 1014.7
20260507114828 51 272 0.0 0.0 0.00 0.00 0.00 87 1014.7
20260507114325 51 296 0.0 0.0 0.00 0.00 0.00 87 1014.8
20260507113823 50 223 0.0 0.0 0.00 0.00 0.00 87 1014.9
20260507113319 50 223 0.0 0.0 0.00 0.00 0.00 86 1014.6
20260507112817 50 223 0.0 0.0 0.00 0.00 0.00 86 1014.3
20260507112314 50 223 0.0 0.0 0.00 0.00 0.00 87 1014.5
20260507111812 50 223 0.0 0.0 0.00 0.00 0.00 87 1014.5
20260507111308 50 223 0.0 0.0 0.00 0.00 0.00 88 1014.3
20260507110804 50 223 0.0 0.0 0.00 0.00 0.00 88 1014.1
20260507110301 50 223 0.0 0.0 0.00 0.00 0.00 89 1014.1
20260507105758 50 223 0.0 0.0 0.00 0.00 0.00 89 1014.1
20260507105254 50 223 0.0 0.0 0.00 0.00 0.00 89 1014.1
20260507104751 50 220 0.0 0.0 0.00 0.00 0.00 89 1014.2
20260507104242 50 204 0.0 0.0 0.00 0.00 0.00 90 1014.0
20260507103737 50 204 0.0 0.0 0.00 0.00 0.00 90 1014.0
20260507103234 50 204 0.0 0.0 0.00 0.00 0.00 91 1014.1
20260507102730 50 204 0.0 0.0 0.00 0.00 0.00 90 1014.0
20260507102227 50 204 0.0 0.0 0.00 0.00 0.00 90 1014.1
20260507101723 50 204 0.0 0.0 0.00 0.00 0.00 90 1014.1
20260507101218 50 204 0.0 0.0 0.00 0.00 0.00 90 1014.3
20260507100716 50 204 0.0 0.0 0.00 0.00 0.00 89 1014.2
20260507100214 50 204 0.0 0.0 0.00 0.00 0.00 89 1014.2
20260507095712 50 204 0.0 0.0 0.00 0.00 0.00 90 1014.2
20260507095208 50 203 0.0 0.0 0.00 0.00 0.00 90 1014.0
20260507094705 50 203 0.0 0.0 0.00 0.00 0.00 90 1014.0
20260507094202 50 203 0.0 0.0 0.00 0.00 0.00 90 1013.8
20260507093659 50 235 0.0 0.0 0.00 0.00 0.00 90 1013.9
20260507093158 50 235 0.0 0.0 0.00 0.00 0.00 90 1013.7
20260507092654 50 235 0.0 0.0 0.00 0.00 0.00 89 1013.8
20260507092151 50 250 0.0 0.0 0.00 0.00 0.00 89 1013.8
20260507091647 51 250 0.0 0.0 0.00 0.00 0.00 89 1013.6
20260507091144 50 250 0.0 0.0 0.00 0.00 0.00 89 1013.6
20260507090639 51 261 0.0 0.0 0.00 0.00 0.00 90 1013.8
20260507090137 51 261 0.0 0.0 0.00 0.00 0.00 90 1013.7
20260507085633 51 261 0.0 0.0 0.00 0.00 0.00 90 1013.8
20260507085130 51 297 2.0 2.0 0.00 0.00 0.00 89 1013.8
20260507084627 51 256 0.0 0.0 0.00 0.00 0.00 89 1013.6
20260507084124 51 286 1.0 2.0 0.00 0.00 0.00 89 1013.6
20260507083620 51 234 0.0 2.0 0.00 0.00 0.00 89 1013.4
20260507083117 51 294 2.0 4.0 0.00 0.00 0.00 88 1013.7
20260507082613 51 297 1.0 3.0 0.00 0.00 0.00 87 1013.5
20260507082110 51 303 3.0 3.0 0.00 0.00 0.00 87 1013.4
20260507081606 51 292 0.0 1.0 0.00 0.00 0.00 86 1013.9
20260507081103 51 293 1.0 2.0 0.00 0.00 0.00 85 1013.9
20260507080559 51 310 2.0 3.0 0.00 0.00 0.00 85 1013.7
20260507080056 51 316 2.0 3.0 0.00 0.00 0.00 85 1013.7
20260507075551 52 292 1.0 3.0 0.00 0.00 0.00 85 1013.9
20260507075047 52 296 1.0 2.0 0.00 0.00 0.00 86 1014.1
20260507074544 52 283 0.0 0.0 0.00 0.00 0.00 86 1014.0
20260507074043 53 236 0.0 1.0 0.00 0.00 0.00 86 1013.9
20260507073538 53 308 2.0 3.0 0.00 0.00 0.00 86 1013.8
20260507073035 53 318 0.0 1.0 0.00 0.00 0.00 86 1013.6
20260507072533 53 282 0.0 2.0 0.00 0.00 0.00 84 1013.6
20260507072030 53 305 1.0 1.0 0.00 0.00 0.00 84 1013.6
20260507071527 54 129 0.0 0.0 0.00 0.00 0.00 85 1013.6
20260507071024 54 124 0.0 0.0 0.00 0.00 0.00 85 1013.7
20260507070521 54 230 0.0 1.0 0.00 0.00 0.00 85 1013.9
20260507070018 54 243 0.0 0.0 0.00 0.00 0.00 87 1013.5
20260507065514 54 243 0.0 0.0 0.00 0.00 0.00 86 1013.4
20260507065011 54 282 1.0 1.0 0.00 0.00 0.00 86 1013.5
20260507064509 54 214 0.0 0.0 0.00 0.00 0.00 87 1013.5
20260507064007 54 214 0.0 0.0 0.00 0.00 0.00 86 1013.4
20260507063504 54 282 0.0 0.0 0.00 0.00 0.00 88 1013.6
20260507063001 54 282 0.0 0.0 0.00 0.00 0.00 88 1013.6
20260507062458 54 147 0.0 0.0 0.00 0.00 0.00 88 1013.4
20260507061955 54 147 0.0 2.0 0.00 0.00 0.00 87 1013.8
20260507061453 55 188 0.0 2.0 0.00 0.00 0.00 88 1013.5
20260507060951 55 146 0.0 2.0 0.00 0.00 0.00 87 1013.6
20260507060448 55 148 0.0 1.0 0.00 0.00 0.00 88 1013.4
20260507055944 55 142 0.0 1.0 0.00 0.00 0.00 87 1013.6
20260507055440 55 174 1.0 1.0 0.00 0.00 0.00 87 1013.5
20260507054937 55 258 0.0 1.0 0.00 0.00 0.00 88 1013.4
20260507054433 56 128 1.0 2.0 0.00 0.00 0.00 88 1013.7
20260507053930 56 288 1.0 1.0 0.00 0.00 0.00 89 1014.3
20260507053428 56 279 0.0 0.0 0.00 0.00 0.00 90 1013.9
20260507052926 56 279 0.0 1.0 0.00 0.00 0.00 90 1013.9
20260507052423 56 278 0.0 0.0 0.00 0.00 0.00 90 1013.6
20260507051920 56 278 0.0 0.0 0.00 0.00 0.00 90 1013.7
20260507051418 56 269 0.0 1.0 0.00 0.00 0.00 90 1014.0
20260507050915 56 261 0.0 0.0 0.00 0.00 0.00 91 1013.9
20260507050411 56 261 0.0 0.0 0.00 0.00 0.00 90 1013.6
20260507045908 57 265 0.0 0.0 0.00 0.00 0.00 90 1013.4
20260507045405 57 265 0.0 1.0 0.00 0.00 0.00 90 1013.6
20260507044902 57 265 0.0 0.0 0.00 0.00 0.00 91 1013.4
20260507044358 57 247 0.0 0.0 0.00 0.00 0.00 90 1013.3
20260507043854 57 247 0.0 0.0 0.00 0.00 0.00 90 1013.5
20260507043351 58 247 0.0 0.0 0.00 0.00 0.00 89 1013.3
20260507042847 58 298 0.0 1.0 0.00 0.00 0.00 88 1013.0
20260507042344 58 309 0.0 3.0 0.00 0.00 0.00 87 1013.4
20260507041840 58 303 3.0 3.0 0.00 0.00 0.00 86 1013.3
20260507041337 58 304 1.0 1.0 0.00 0.00 0.00 89 1013.0
20260507040829 58 278 0.0 1.0 0.00 0.00 0.00 88 1013.0
20260507040325 57 309 1.0 2.0 0.00 0.00 0.00 91 1012.8
20260507035821 57 273 0.0 1.0 0.00 0.17 0.17 91 1012.5
20260507035316 57 303 1.0 2.0 0.00 0.17 0.17 91 1012.7
20260507034814 57 293 1.0 1.0 0.00 0.17 0.17 92 1012.2
20260507034311 57 145 0.0 2.0 0.00 0.17 0.17 91 1012.7
20260507033809 58 147 0.0 3.0 0.00 0.17 0.17 91 1012.8
20260507033306 59 294 0.0 0.0 0.00 0.17 0.17 87 1013.5
20260507032803 58 294 0.0 0.0 0.00 0.17 0.17 85 1014.0
20260507032259 57 276 1.0 2.0 0.00 0.17 0.17 89 1014.1
20260507031756 57 249 0.0 0.0 0.00 0.17 0.17 91 1014.0
20260507031253 57 274 0.0 1.0 0.00 0.17 0.17 91 1014.0
20260507030749 58 298 0.0 0.0 0.00 0.17 0.17 90 1014.0
20260507030247 58 298 0.0 0.0 0.00 0.17 0.17 89 1014.0
20260507025744 57 294 0.0 1.0 0.00 0.17 0.17 89 1014.1
20260507025241 57 294 1.0 2.0 0.00 0.17 0.17 90 1013.9
20260507024739 57 293 0.0 0.0 0.00 0.17 0.17 90 1013.7
20260507024236 57 293 0.0 0.0 0.00 0.17 0.17 90 1013.2
20260507023732 57 293 0.0 0.0 0.00 0.17 0.17 90 1013.3